{"data":{"norad_id":60400,"intl_designator":"2024-141C","name":"STARLINK-11234 [DTC]","alt_names":[],"object_type":"PAYLOAD","status":"ACTIVE","operator":null,"country":"US","launch_date":"2024-08-10","launch_site_code":"AFETR","launch_vehicle":null,"mission":null,"orbit_class":"UNKNOWN","rcs_meters":null,"size_class":null,"mass_kg":null,"dimensions":null,"purposes":["comms"],"wikipedia_slug":null,"has_3d_model":false,"image_url":null,"decayed_at":null,"tle_current":{"epoch":"2026-05-25T01:54:14.194944Z","epoch_age_seconds":78729,"freshness":"FRESH","line1":"1 60400U 24141C   26145.07933096  .00001213  00000+0  14868-4 0  9994","line2":"2 60400  53.1570  69.4807 0000774  98.3997 261.7109 15.69710643103697","mean_motion":15.69710643,"eccentricity":7.74e-5,"inclination_deg":53.157,"raan_deg":69.4807,"arg_perigee_deg":98.3997,"mean_anomaly_deg":261.7109,"bstar":1.4868e-5,"rev_number":10369,"period_min":91.736652638597,"perigee_km":359.20339988867,"apogee_km":360.2464209124,"semimajor_km":6737.8619104005,"source":"CELESTRAK","updated_at":"2026-05-25T13:38:19.265648Z"}}}